Location: Krakow
(50.0212°N, 19.9423°E)
Time: 17:33:44
(UTC+01:00)

ARIANE 6 FM1 Upper Stage - Pass Details

Date: 17 December 2025
Orbit: 522 x 610 km, 62.0° (Epoch: 17 January)

Event Time Altitude Azimuth Distance (km) Brightness Sun altitude
Rises 05:56:58 0° 222° (SW) 2,685 5.9 -14.5°
Reaches altitude 10° 05:59:10 10° 222° (SW) 1,785 5.0 -14.2°
Maximum altitude 06:03:11 84° 135° (SE) 537 2.6 -13.6°
Drops below altitude 10° 06:07:09 10° 47° (NE) 1,770 5.5 -13.0°
Sets 06:09:20 0° 47° (NE) 2,659 6.5 -12.7°
